| time (UTC) | temp F | wind direction | speed MPH | gust MPH | rain 1hr in | rain 24hr in | rain mn in | humidity % | barometer mb |
| 20260901092632 | 76 | 238 | 2.0 | 4.0 | 0.00 | 0.01 | 0.00 | 87 | 1013.5 |
| 20260901092129 | 76 | 238 | 3.0 | 4.0 | 0.00 | 0.01 | 0.00 | 87 | 1013.6 |
| 20260901091624 | 76 | 238 | 2.0 | 5.0 | 0.00 | 0.01 | 0.00 | 87 | 1013.7 |
| 20260901091056 | 76 | 238 | 2.0 | 5.0 | 0.00 | 0.01 | 0.00 | 87 | 1013.7 |
| 20260901090556 | 76 | 239 | 2.0 | 5.0 | 0.00 | 0.02 | 0.00 | 87 | 1013.8 |
| 20260901090056 | 76 | 239 | 3.0 | 4.0 | 0.00 | 0.02 | 0.00 | 87 | 1013.7 |
| 20260901085555 | 76 | 239 | 3.0 | 5.0 | 0.00 | 0.02 | 0.00 | 87 | 1013.7 |
| 20260901085059 | 76 | 240 | 3.0 | 5.0 | 0.00 | 0.03 | 0.00 | 87 | 1013.7 |
| 20260901084556 | 76 | 240 | 3.0 | 5.0 | 0.00 | 0.03 | 0.00 | 88 | 1013.6 |
| 20260901084532 | 76 | 240 | 3.0 | 5.0 | 0.00 | 0.03 | 0.00 | 88 | 1013.7 |
| 20260901083555 | 76 | 240 | 3.0 | 4.0 | 0.00 | 0.03 | 0.00 | 88 | 1013.6 |
| 20260901083045 | 76 | 240 | 3.0 | 4.0 | 0.00 | 0.03 | 0.00 | 88 | 1013.6 |
| 20260901082524 | 75 | 240 | 3.0 | 5.0 | 0.00 | 0.03 | 0.00 | 88 | 1013.6 |
| 20260901082219 | 75 | 240 | 3.0 | 5.0 | 0.00 | 0.03 | 0.00 | 88 | 1013.6 |
| 20260901081944 | 76 | 240 | 3.0 | 4.0 | 0.00 | 0.03 | 0.00 | 88 | 1013.6 |
| 20260901080955 | 76 | 240 | 3.0 | 6.0 | 0.00 | 0.03 | 0.00 | 88 | 1013.6 |
| 20260901080458 | 76 | 240 | 3.0 | 6.0 | 0.00 | 0.03 | 0.00 | 87 | 1013.6 |
| 20260901075943 | 76 | 243 | 3.0 | 4.0 | 0.00 | 0.03 | 0.00 | 87 | 1013.6 |
| 20260901075439 | 76 | 243 | 3.0 | 4.0 | 0.00 | 0.03 | 0.00 | 87 | 1013.7 |
| 20260901074939 | 76 | 243 | 3.0 | 4.0 | 0.00 | 0.03 | 0.00 | 86 | 1013.8 |
| 20260901074641 | 76 | 243 | 3.0 | 4.0 | 0.00 | 0.03 | 0.00 | 86 | 1013.9 |
| 20260901074141 | 76 | 243 | 3.0 | 4.0 | 0.00 | 0.03 | 0.00 | 86 | 1014.0 |
| 20260901073910 | 76 | 243 | 3.0 | 4.0 | 0.00 | 0.03 | 0.00 | 86 | 1014.0 |
| 20260901072853 | 76 | 243 | 3.0 | 4.0 | 0.00 | 0.03 | 0.00 | 86 | 1013.9 |
| 20260901072622 | 76 | 243 | 3.0 | 4.0 | 0.00 | 0.03 | 0.00 | 86 | 1013.9 |
| 20260901071851 | 76 | 243 | 3.0 | 4.0 | 0.00 | 0.03 | 0.00 | 86 | 1013.9 |
| 20260901071356 | 76 | 244 | 3.0 | 4.0 | 0.00 | 0.03 | 0.00 | 86 | 1013.9 |
| 20260901070848 | 76 | 244 | 3.0 | 5.0 | 0.00 | 0.03 | 0.00 | 86 | 1014.0 |
| 20260901070831 | 76 | 244 | 3.0 | 5.0 | 0.00 | 0.03 | 0.00 | 86 | 1014.1 |
| 20260901065849 | 76 | 244 | 3.0 | 4.0 | 0.00 | 0.03 | 0.00 | 86 | 1014.0 |
| 20260901065603 | 76 | 244 | 3.0 | 5.0 | 0.00 | 0.03 | 0.00 | 86 | 1014.1 |
| 20260901064844 | 76 | 244 | 3.0 | 5.0 | 0.00 | 0.03 | 0.00 | 86 | 1014.1 |
| 20260901064601 | 76 | 244 | 3.0 | 5.0 | 0.00 | 0.03 | 0.00 | 86 | 1014.0 |
| 20260901063829 | 76 | 245 | 3.0 | 4.0 | 0.00 | 0.03 | 0.00 | 86 | 1014.0 |
| 20260901063323 | 76 | 245 | 2.0 | 4.0 | 0.00 | 0.03 | 0.00 | 86 | 1014.0 |
| 20260901062820 | 76 | 245 | 2.0 | 4.0 | 0.00 | 0.03 | 0.00 | 87 | 1014.1 |
| 20260901062547 | 75 | 245 | 3.0 | 5.0 | 0.00 | 0.03 | 0.00 | 88 | 1014.0 |
| 20260901061805 | 75 | 246 | 3.0 | 5.0 | 0.00 | 0.03 | 0.00 | 89 | 1013.9 |
| 20260901061515 | 75 | 246 | 3.0 | 4.0 | 0.00 | 0.03 | 0.00 | 89 | 1013.9 |
| 20260901060734 | 74 | 248 | 2.0 | 4.0 | 0.00 | 0.03 | 0.00 | 89 | 1013.9 |
| 20260901060225 | 74 | 248 | 2.0 | 4.0 | 0.00 | 0.03 | 0.00 | 89 | 1014.0 |
| 20260901055725 | 74 | 248 | 3.0 | 5.0 | 0.00 | 0.03 | 0.00 | 89 | 1014.1 |
| 20260901055207 | 74 | 248 | 3.0 | 5.0 | 0.00 | 0.03 | 0.00 | 89 | 1014.1 |
| 20260901054706 | 74 | 266 | 3.0 | 4.0 | 0.00 | 0.03 | 0.00 | 90 | 1014.4 |
| 20260901054152 | 74 | 266 | 3.0 | 4.0 | 0.00 | 0.03 | 0.00 | 90 | 1014.5 |
| 20260901053651 | 74 | 266 | 3.0 | 4.0 | 0.00 | 0.03 | 0.00 | 90 | 1014.5 |
| 20260901053151 | 74 | 274 | 3.0 | 4.0 | 0.00 | 0.03 | 0.00 | 89 | 1014.6 |
| 20260901052914 | 74 | 275 | 3.0 | 4.0 | 0.00 | 0.03 | 0.00 | 90 | 1014.6 |
| 20260901052153 | 74 | 276 | 2.0 | 5.0 | 0.00 | 0.03 | 0.00 | 90 | 1014.7 |
| 20260901051627 | 74 | 278 | 1.0 | 4.0 | 0.00 | 0.03 | 0.00 | 91 | 1014.6 |
| 20260901051118 | 74 | 278 | 2.0 | 4.0 | 0.00 | 0.03 | 0.00 | 91 | 1014.6 |
| 20260901050831 | 73 | 278 | 2.0 | 3.0 | 0.00 | 0.03 | 0.00 | 91 | 1014.5 |
| 20260901050059 | 73 | 278 | 2.0 | 3.0 | 0.00 | 0.03 | 0.00 | 91 | 1014.6 |
| 20260901045556 | 73 | 279 | 2.0 | 3.0 | 0.00 | 0.03 | 0.00 | 91 | 1014.6 |
| 20260901045056 | 73 | 279 | 2.0 | 4.0 | 0.00 | 0.03 | 0.00 | 91 | 1014.6 |
| 20260901044549 | 73 | 279 | 1.0 | 4.0 | 0.00 | 0.03 | 0.00 | 91 | 1014.6 |
| 20260901044050 | 73 | 279 | 0.0 | 3.0 | 0.00 | 0.03 | 0.00 | 91 | 1014.5 |
| 20260901043536 | 73 | 279 | 0.0 | 0.0 | 0.00 | 0.03 | 0.00 | 90 | 1014.5 |
| 20260901043048 | 73 | 279 | 0.0 | 0.0 | 0.01 | 0.03 | 0.00 | 90 | 1014.5 |
| 20260901041954 | 73 | 279 | 0.0 | 0.0 | 0.01 | 0.04 | 0.00 | 90 | 1014.5 |
| 20260901041451 | 73 | 279 | 0.0 | 2.0 | 0.01 | 0.04 | 0.00 | 90 | 1014.7 |
| 20260901041206 | 73 | 279 | 1.0 | 3.0 | 0.01 | 0.04 | 0.00 | 90 | 1014.7 |
| 20260901040448 | 73 | 279 | 1.0 | 3.0 | 0.01 | 0.04 | 0.00 | 90 | 1014.7 |
| 20260901035947 | 73 | 279 | 0.0 | 2.0 | 0.01 | 0.04 | 0.04 | 90 | 1014.6 |
| 20260901035447 | 73 | 279 | 0.0 | 0.0 | 0.01 | 0.04 | 0.04 | 91 | 1014.6 |
| 20260901034940 | 73 | 279 | 0.0 | 0.0 | 0.01 | 0.04 | 0.04 | 92 | 1014.7 |
| 20260901034422 | 72 | 279 | 0.0 | 0.0 | 0.01 | 0.05 | 0.04 | 92 | 1014.7 |
| 20260901033914 | 72 | 279 | 0.0 | 0.0 | 0.01 | 0.05 | 0.04 | 93 | 1014.6 |
| 20260901033356 | 72 | 279 | 0.0 | 0.0 | 0.00 | 0.05 | 0.03 | 93 | 1014.6 |
| 20260901032850 | 71 | 279 | 0.0 | 0.0 | 0.00 | 0.05 | 0.03 | 94 | 1014.7 |
| 20260901032347 | 71 | 279 | 0.0 | 0.0 | 0.00 | 0.06 | 0.03 | 94 | 1014.7 |
| 20260901032108 | 71 | 279 | 0.0 | 0.0 | 0.00 | 0.06 | 0.03 | 94 | 1014.7 |
| 20260901031606 | 72 | 279 | 0.0 | 0.0 | 0.00 | 0.06 | 0.03 | 94 | 1014.6 |
| 20260901030827 | 72 | 279 | 0.0 | 0.0 | 0.00 | 0.06 | 0.03 | 93 | 1014.6 |
| 20260901030325 | 72 | 279 | 0.0 | 0.0 | 0.00 | 0.07 | 0.03 | 93 | 1014.7 |
| 20260901025815 | 72 | 279 | 0.0 | 0.0 | 0.00 | 0.07 | 0.03 | 93 | 1014.8 |
| 20260901025320 | 73 | 279 | 0.0 | 0.0 | 0.00 | 0.07 | 0.03 | 93 | 1014.8 |
| 20260901024743 | 73 | 279 | 0.0 | 0.0 | 0.00 | 0.07 | 0.03 | 93 | 1014.8 |
| 20260901024219 | 73 | 279 | 0.0 | 0.0 | 0.00 | 0.07 | 0.03 | 92 | 1014.7 |
| 20260901023645 | 73 | 279 | 0.0 | 0.0 | 0.00 | 0.07 | 0.03 | 91 | 1014.7 |
| 20260901023405 | 73 | 279 | 0.0 | 0.0 | 0.00 | 0.07 | 0.03 | 91 | 1014.7 |
| 20260901022641 | 73 | 279 | 0.0 | 0.0 | 0.00 | 0.07 | 0.03 | 91 | 1014.8 |
| 20260901022138 | 73 | 279 | 0.0 | 0.0 | 0.00 | 0.07 | 0.03 | 91 | 1014.8 |
| 20260901021640 | 73 | 279 | 0.0 | 0.0 | 0.00 | 0.07 | 0.03 | 91 | 1014.9 |
| 20260901021117 | 73 | 279 | 0.0 | 0.0 | 0.00 | 0.07 | 0.03 | 90 | 1014.8 |
| 20260901020548 | 73 | 279 | 0.0 | 0.0 | 0.00 | 0.07 | 0.03 | 91 | 1014.6 |
| 20260901020045 | 74 | 279 | 0.0 | 0.0 | 0.00 | 0.07 | 0.03 | 91 | 1014.7 |
| 20260901015541 | 74 | 279 | 0.0 | 0.0 | 0.00 | 0.07 | 0.03 | 90 | 1014.8 |
| 20260901015259 | 74 | 279 | 0.0 | 0.0 | 0.00 | 0.07 | 0.03 | 90 | 1014.8 |
| 20260901014747 | 74 | 279 | 0.0 | 0.0 | 0.00 | 0.07 | 0.03 | 90 | 1014.8 |
| 20260901014012 | 74 | 279 | 0.0 | 0.0 | 0.00 | 0.07 | 0.03 | 90 | 1014.8 |
| 20260901013509 | 74 | 279 | 0.0 | 0.0 | 0.00 | 0.07 | 0.03 | 90 | 1014.7 |
| 20260901013003 | 74 | 279 | 0.0 | 0.0 | 0.00 | 0.07 | 0.03 | 91 | 1014.7 |
| 20260901012505 | 74 | 279 | 0.0 | 0.0 | 0.00 | 0.07 | 0.03 | 91 | 1014.7 |
| 20260901011946 | 74 | 279 | 0.0 | 0.0 | 0.00 | 0.07 | 0.03 | 92 | 1014.7 |
| 20260901011430 | 74 | 279 | 0.0 | 0.0 | 0.00 | 0.07 | 0.03 | 92 | 1014.6 |
| 20260901010913 | 74 | 279 | 0.0 | 0.0 | 0.00 | 0.07 | 0.03 | 92 | 1014.5 |
| 20260901010400 | 74 | 279 | 1.0 | 4.0 | 0.00 | 0.07 | 0.03 | 91 | 1014.5 |
| 20260901005856 | 74 | 279 | 1.0 | 4.0 | 0.00 | 0.07 | 0.03 | 91 | 1014.3 |
| 20260901005342 | 75 | 279 | 0.0 | 0.0 | 0.00 | 0.07 | 0.03 | 90 | 1014.5 |
| 20260901004838 | 75 | 279 | 0.0 | 0.0 | 0.00 | 0.07 | 0.03 | 90 | 1014.8 |
| 20260901004329 | 75 | 279 | 0.0 | 0.0 | 0.00 | 0.07 | 0.03 | 89 | 1014.8 |
| 20260901003829 | 75 | 279 | 0.0 | 0.0 | 0.00 | 0.07 | 0.03 | 89 | 1015.1 |
| 20260901003329 | 75 | 279 | 0.0 | 0.0 | 0.00 | 0.07 | 0.03 | 88 | 1015.1 |
| 20260901003031 | 76 | 279 | 0.0 | 0.0 | 0.00 | 0.07 | 0.03 | 87 | 1015.1 |
| 20260901002316 | 76 | 279 | 0.0 | 0.0 | 0.00 | 0.07 | 0.03 | 86 | 1015.2 |
| 20260901001753 | 76 | 279 | 0.0 | 0.0 | 0.00 | 0.07 | 0.03 | 86 | 1015.3 |
| 20260901001241 | 76 | 279 | 0.0 | 0.0 | 0.00 | 0.07 | 0.03 | 86 | 1015.4 |
| 20260901000741 | 76 | 279 | 0.0 | 0.0 | 0.00 | 0.07 | 0.03 | 86 | 1015.4 |
| 20260901000215 | 77 | 279 | 0.0 | 0.0 | 0.00 | 0.07 | 0.03 | 85 | 1015.3 |
| 20260831235710 | 77 | 279 | 0.0 | 0.0 | 0.00 | 0.07 | 0.03 | 84 | 1015.4 |
| 20260831235207 | 77 | 279 | 0.0 | 0.0 | 0.00 | 0.07 | 0.03 | 83 | 1015.3 |
| 20260831234642 | 77 | 279 | 0.0 | 0.0 | 0.00 | 0.07 | 0.03 | 83 | 1015.2 |
| 20260831234134 | 77 | 279 | 0.0 | 0.0 | 0.00 | 0.07 | 0.03 | 83 | 1015.2 |
| 20260831233631 | 77 | 279 | 0.0 | 0.0 | 0.00 | 0.07 | 0.03 | 83 | 1015.3 |
| 20260831233554 | 77 | 279 | 0.0 | 0.0 | 0.00 | 0.07 | 0.03 | 82 | 1015.2 |
| 20260831232556 | 78 | 279 | 0.0 | 0.0 | 0.00 | 0.07 | 0.03 | 82 | 1015.2 |
| 20260831232051 | 78 | 279 | 0.0 | 0.0 | 0.00 | 0.07 | 0.03 | 82 | 1015.3 |
| 20260831231811 | 78 | 279 | 0.0 | 0.0 | 0.00 | 0.07 | 0.03 | 81 | 1015.2 |
| 20260831231042 | 78 | 279 | 0.0 | 0.0 | 0.00 | 0.07 | 0.03 | 81 | 1015.2 |
| 20260831230537 | 78 | 279 | 0.0 | 0.0 | 0.00 | 0.07 | 0.03 | 81 | 1015.2 |
| 20260831230031 | 78 | 279 | 0.0 | 0.0 | 0.00 | 0.07 | 0.03 | 80 | 1015.2 |
| 20260831225518 | 78 | 279 | 0.0 | 0.0 | 0.00 | 0.07 | 0.03 | 80 | 1015.2 |
| 20260831225019 | 78 | 279 | 0.0 | 0.0 | 0.00 | 0.07 | 0.03 | 80 | 1015.0 |
| 20260831224737 | 78 | 279 | 0.0 | 0.0 | 0.00 | 0.07 | 0.03 | 80 | 1015.0 |
| 20260831224012 | 78 | 279 | 0.0 | 0.0 | 0.00 | 0.07 | 0.03 | 82 | 1014.9 |
| 20260831223503 | 79 | 279 | 0.0 | 0.0 | 0.00 | 0.07 | 0.03 | 83 | 1014.9 |
| 20260831222942 | 79 | 279 | 0.0 | 0.0 | 0.00 | 0.07 | 0.03 | 82 | 1015.1 |
| 20260831222438 | 79 | 280 | 0.0 | 0.0 | 0.00 | 0.07 | 0.03 | 80 | 1015.5 |
| 20260831221926 | 80 | 280 | 0.0 | 0.0 | 0.00 | 0.07 | 0.03 | 80 | 1015.9 |
| 20260831221405 | 80 | 280 | 0.0 | 0.0 | 0.00 | 0.07 | 0.03 | 80 | 1016.0 |
| 20260831220902 | 80 | 280 | 0.0 | 0.0 | 0.00 | 0.07 | 0.03 | 80 | 1016.0 |
| 20260831220359 | 80 | 280 | 0.0 | 0.0 | 0.00 | 0.07 | 0.03 | 77 | 1015.9 |
| 20260831215836 | 80 | 280 | 0.0 | 0.0 | 0.00 | 0.07 | 0.03 | 76 | 1016.0 |
| 20260831215326 | 80 | 280 | 0.0 | 0.0 | 0.00 | 0.07 | 0.03 | 76 | 1016.1 |
| 20260831214823 | 80 | 280 | 0.0 | 0.0 | 0.00 | 0.07 | 0.03 | 75 | 1016.0 |
| 20260831214530 | 80 | 280 | 0.0 | 0.0 | 0.00 | 0.07 | 0.03 | 75 | 1016.2 |
| 20260831213802 | 80 | 280 | 0.0 | 0.0 | 0.00 | 0.07 | 0.03 | 74 | 1016.1 |
| 20260831213233 | 80 | 280 | 0.0 | 0.0 | 0.00 | 0.07 | 0.03 | 74 | 1016.4 |
| 20260831212731 | 81 | 280 | 0.0 | 0.0 | 0.00 | 0.07 | 0.03 | 73 | 1016.5 |
| 20260831212231 | 81 | 280 | 0.0 | 0.0 | 0.00 | 0.07 | 0.03 | 72 | 1016.5 |
| 20260831211730 | 81 | 280 | 0.0 | 0.0 | 0.00 | 0.07 | 0.03 | 72 | 1016.5 |
| 20260831211214 | 82 | 280 | 0.0 | 0.0 | 0.00 | 0.07 | 0.03 | 71 | 1016.6 |
| 20260831210710 | 82 | 280 | 0.0 | 0.0 | 0.00 | 0.07 | 0.03 | 70 | 1016.4 |
| 20260831210211 | 82 | 280 | 0.0 | 3.0 | 0.00 | 0.07 | 0.03 | 69 | 1016.5 |
| 20260831205703 | 82 | 280 | 0.0 | 5.0 | 0.00 | 0.07 | 0.03 | 68 | 1016.5 |
| 20260831205138 | 83 | 279 | 0.0 | 5.0 | 0.00 | 0.07 | 0.03 | 70 | 1016.5 |
| 20260831204631 | 83 | 311 | 0.0 | 2.0 | 0.00 | 0.07 | 0.03 | 71 | 1016.5 |
| 20260831204115 | 82 | 311 | 0.0 | 2.0 | 0.00 | 0.07 | 0.03 | 73 | 1016.7 |
| 20260831203834 | 82 | 311 | 0.0 | 2.0 | 0.00 | 0.07 | 0.03 | 73 | 1016.6 |
| 20260831203107 | 82 | 311 | 0.0 | 0.0 | 0.00 | 0.07 | 0.03 | 72 | 1016.5 |
| 20260831202836 | 82 | 311 | 0.0 | 1.0 | 0.00 | 0.07 | 0.03 | 72 | 1016.4 |
| 20260831202102 | 82 | 311 | 0.0 | 2.0 | 0.00 | 0.07 | 0.03 | 72 | 1016.4 |
| 20260831201557 | 83 | 311 | 0.0 | 2.0 | 0.00 | 0.07 | 0.03 | 71 | 1016.5 |
| 20260831201025 | 83 | 236 | 0.0 | 2.0 | 0.00 | 0.07 | 0.03 | 72 | 1016.6 |
| 20260831200502 | 83 | 233 | 0.0 | 1.0 | 0.00 | 0.07 | 0.03 | 72 | 1016.5 |
| 20260831195959 | 83 | 231 | 0.0 | 0.0 | 0.00 | 0.07 | 0.03 | 73 | 1016.5 |
| 20260831195436 | 83 | 225 | 0.0 | 0.0 | 0.00 | 0.07 | 0.03 | 74 | 1016.6 |
| 20260831194936 | 83 | 225 | 0.0 | 2.0 | 0.00 | 0.07 | 0.03 | 73 | 1016.6 |
| 20260831194426 | 83 | 225 | 0.0 | 2.0 | 0.00 | 0.07 | 0.03 | 75 | 1016.6 |
| 20260831193917 | 83 | 225 | 0.0 | 2.0 | 0.00 | 0.07 | 0.03 | 73 | 1016.6 |
| 20260831193403 | 82 | 225 | 0.0 | 2.0 | 0.00 | 0.07 | 0.03 | 73 | 1016.6 |
| 20260831192840 | 82 | 159 | 0.0 | 0.0 | 0.00 | 0.07 | 0.03 | 74 | 1016.6 |
| 20260831192331 | 82 | 159 | 0.0 | 0.0 | 0.00 | 0.07 | 0.03 | 72 | 1016.6 |
| 20260831191831 | 83 | 159 | 0.0 | 0.0 | 0.00 | 0.07 | 0.03 | 71 | 1016.6 |
| 20260831191302 | 83 | 159 | 0.0 | 0.0 | 0.00 | 0.07 | 0.03 | 70 | 1016.5 |
| 20260831191032 | 83 | 157 | 0.0 | 0.0 | 0.00 | 0.07 | 0.03 | 70 | 1016.8 |
| 20260831190258 | 84 | 157 | 0.0 | 5.0 | 0.00 | 0.07 | 0.03 | 69 | 1016.9 |
| 20260831185745 | 84 | 157 | 0.0 | 5.0 | 0.00 | 0.07 | 0.03 | 68 | 1017.0 |
| 20260831185238 | 84 | 329 | 0.0 | 4.0 | 0.00 | 0.07 | 0.03 | 67 | 1017.0 |
| 20260831184733 | 84 | 329 | 0.0 | 4.0 | 0.00 | 0.07 | 0.03 | 67 | 1017.1 |
| 20260831184204 | 84 | 330 | 0.0 | 5.0 | 0.00 | 0.07 | 0.03 | 70 | 1017.2 |
| 20260831183656 | 84 | 264 | 1.0 | 5.0 | 0.00 | 0.08 | 0.03 | 69 | 1017.2 |
| 20260831183131 | 83 | 263 | 0.0 | 3.0 | 0.00 | 0.08 | 0.03 | 71 | 1017.2 |
| 20260831182623 | 83 | 263 | 0.0 | 3.0 | 0.00 | 0.08 | 0.03 | 73 | 1017.1 |
| 20260831182125 | 83 | 263 | 0.0 | 4.0 | 0.00 | 0.08 | 0.03 | 72 | 1017.2 |
| 20260831181601 | 83 | 263 | 0.0 | 4.0 | 0.00 | 0.08 | 0.03 | 72 | 1017.2 |
| 20260831181103 | 83 | 236 | 0.0 | 4.0 | 0.00 | 0.08 | 0.03 | 71 | 1017.4 |
| 20260831180558 | 83 | 235 | 0.0 | 4.0 | 0.00 | 0.08 | 0.03 | 72 | 1017.4 |
| 20260831180059 | 83 | 234 | 0.0 | 2.0 | 0.00 | 0.08 | 0.03 | 71 | 1017.4 |
| 20260831175824 | 83 | 234 | 0.0 | 2.0 | 0.00 | 0.09 | 0.03 | 71 | 1017.3 |
| 20260831175310 | 84 | 234 | 0.0 | 1.0 | 0.00 | 0.09 | 0.03 | 69 | 1017.4 |
| 20260831174535 | 84 | 234 | 0.0 | 3.0 | 0.00 | 0.09 | 0.03 | 67 | 1017.4 |
| 20260831174029 | 85 | 234 | 0.0 | 3.0 | 0.00 | 0.09 | 0.03 | 68 | 1017.4 |
| 20260831173532 | 85 | 233 | 0.0 | 4.0 | 0.00 | 0.10 | 0.03 | 68 | 1017.4 |
| 20260831173025 | 85 | 234 | 0.0 | 4.0 | 0.00 | 0.10 | 0.03 | 66 | 1017.3 |
| 20260831172456 | 85 | 227 | 0.0 | 4.0 | 0.00 | 0.11 | 0.03 | 70 | 1017.3 |
| 20260831172211 | 84 | 202 | 0.0 | 4.0 | 0.00 | 0.11 | 0.03 | 70 | 1017.4 |
| 20260831171437 | 84 | 202 | 0.0 | 5.0 | 0.00 | 0.12 | 0.03 | 71 | 1017.3 |
| 20260831170931 | 85 | 202 | 1.0 | 5.0 | 0.00 | 0.12 | 0.03 | 69 | 1017.3 |
| 20260831170641 | 85 | 201 | 1.0 | 6.0 | 0.00 | 0.12 | 0.03 | 68 | 1017.3 |
| 20260831165914 | 85 | 201 | 1.0 | 6.0 | 0.00 | 0.12 | 0.03 | 68 | 1017.4 |
| 20260831165356 | 85 | 204 | 1.0 | 5.0 | 0.00 | 0.12 | 0.03 | 69 | 1017.7 |
| 20260831164859 | 85 | 217 | 1.0 | 4.0 | 0.00 | 0.12 | 0.03 | 70 | 1017.6 |
| 20260831164325 | 85 | 217 | 0.0 | 4.0 | 0.00 | 0.12 | 0.03 | 71 | 1017.4 |
| 20260831163812 | 85 | 217 | 0.0 | 3.0 | 0.00 | 0.12 | 0.03 | 71 | 1017.4 |
| 20260831163314 | 84 | 216 | 0.0 | 3.0 | 0.00 | 0.12 | 0.03 | 73 | 1017.4 |
| 20260831162759 | 84 | 216 | 0.0 | 3.0 | 0.00 | 0.12 | 0.03 | 74 | 1017.4 |
| 20260831162258 | 83 | 216 | 0.0 | 1.0 | 0.00 | 0.12 | 0.03 | 75 | 1017.4 |
| 20260831161750 | 83 | 215 | 0.0 | 0.0 | 0.00 | 0.12 | 0.03 | 75 | 1017.3 |
| 20260831161252 | 82 | 215 | 0.0 | 0.0 | 0.00 | 0.12 | 0.03 | 75 | 1017.3 |
| 20260831160738 | 82 | 215 | 0.0 | 0.0 | 0.00 | 0.12 | 0.03 | 77 | 1017.4 |
| 20260831160234 | 82 | 215 | 0.0 | 0.0 | 0.00 | 0.12 | 0.03 | 75 | 1017.4 |
| 20260831155724 | 82 | 215 | 0.0 | 2.0 | 0.00 | 0.12 | 0.03 | 78 | 1017.3 |
| 20260831155216 | 82 | 215 | 0.0 | 2.0 | 0.00 | 0.12 | 0.03 | 76 | 1017.2 |
| 20260831154659 | 82 | 216 | 0.0 | 7.0 | 0.00 | 0.12 | 0.03 | 77 | 1017.2 |
| 20260831154155 | 81 | 216 | 0.0 | 7.0 | 0.00 | 0.12 | 0.03 | 77 | 1017.3 |
| 20260831153648 | 81 | 190 | 1.0 | 4.0 | 0.00 | 0.12 | 0.03 | 77 | 1017.3 |
| 20260831153134 | 81 | 191 | 1.0 | 3.0 | 0.00 | 0.12 | 0.03 | 78 | 1017.2 |
| 20260831152629 | 81 | 190 | 1.0 | 3.0 | 0.00 | 0.12 | 0.03 | 78 | 1017.2 |
| 20260831152345 | 80 | 190 | 1.0 | 3.0 | 0.00 | 0.12 | 0.03 | 80 | 1017.2 |
| 20260831151619 | 80 | 190 | 1.0 | 3.0 | 0.00 | 0.12 | 0.03 | 82 | 1017.1 |
| 20260831151339 | 79 | 190 | 1.0 | 3.0 | 0.00 | 0.12 | 0.03 | 81 | 1017.1 |
| 20260831150606 | 79 | 190 | 0.0 | 3.0 | 0.00 | 0.12 | 0.03 | 81 | 1017.2 |
| 20260831145603 | 79 | 191 | 1.0 | 3.0 | 0.00 | 0.12 | 0.03 | 80 | 1017.6 |
| 20260831145317 | 79 | 191 | 2.0 | 4.0 | 0.00 | 0.12 | 0.03 | 81 | 1017.3 |
| 20260831144557 | 79 | 191 | 2.0 | 4.0 | 0.00 | 0.12 | 0.03 | 80 | 1017.4 |
| 20260831144030 | 79 | 189 | 2.0 | 4.0 | 0.00 | 0.12 | 0.03 | 80 | 1017.3 |
| 20260831143520 | 79 | 188 | 1.0 | 4.0 | 0.00 | 0.12 | 0.03 | 83 | 1017.1 |
| 20260831143017 | 78 | 188 | 1.0 | 4.0 | 0.00 | 0.12 | 0.03 | 86 | 1017.0 |
| 20260831142514 | 77 | 189 | 2.0 | 4.0 | 0.00 | 0.12 | 0.03 | 89 | 1017.0 |
| 20260831142006 | 76 | 189 | 1.0 | 4.0 | 0.00 | 0.12 | 0.03 | 91 | 1016.9 |
| 20260831141504 | 75 | 189 | 0.0 | 3.0 | 0.00 | 0.12 | 0.03 | 94 | 1016.9 |
| 20260831141230 | 74 | 189 | 0.0 | 0.0 | 0.00 | 0.12 | 0.03 | 94 | 1016.7 |
| 20260831140451 | 74 | 189 | 0.0 | 0.0 | 0.00 | 0.12 | 0.03 | 95 | 1016.8 |
| 20260831140218 | 74 | 189 | 0.0 | 0.0 | 0.00 | 0.12 | 0.03 | 95 | 1016.8 |
| 20260831135436 | 74 | 189 | 0.0 | 0.0 | 0.00 | 0.12 | 0.03 | 96 | 1016.7 |
| 20260831134928 | 73 | 189 | 0.0 | 0.0 | 0.00 | 0.12 | 0.03 | 97 | 1016.6 |
| 20260831134916 | 73 | 189 | 0.0 | 4.0 | 0.00 | 0.12 | 0.03 | 98 | 1016.7 |
| 20260831134147 | 72 | 189 | 1.0 | 4.0 | 0.00 | 0.12 | 0.03 | 98 | 1016.7 |
| 20260831133423 | 72 | 189 | 2.0 | 4.0 | 0.00 | 0.12 | 0.03 | 98 | 1016.8 |
| 20260831132918 | 71 | 189 | 1.0 | 4.0 | 0.00 | 0.12 | 0.03 | 98 | 1016.7 |
| 20260831132416 | 71 | 189 | 1.0 | 5.0 | 0.00 | 0.12 | 0.03 | 98 | 1016.6 |
| 20260831131910 | 71 | 189 | 1.0 | 5.0 | 0.00 | 0.12 | 0.03 | 98 | 1016.7 |
| 20260831131354 | 71 | 189 | 1.0 | 4.0 | 0.00 | 0.12 | 0.03 | 98 | 1016.7 |
| 20260831130846 | 70 | 189 | 2.0 | 4.0 | 0.00 | 0.12 | 0.03 | 98 | 1016.8 |
| 20260831130614 | 70 | 189 | 2.0 | 4.0 | 0.00 | 0.12 | 0.03 | 98 | 1016.9 |
| 20260831125825 | 70 | 189 | 2.0 | 4.0 | 0.00 | 0.12 | 0.03 | 99 | 1016.9 |
| 20260831125754 | 70 | 189 | 1.0 | 3.0 | 0.00 | 0.12 | 0.03 | 99 | 1017.0 |
| 20260831124802 | 70 | 189 | 0.0 | 1.0 | 0.00 | 0.12 | 0.03 | 98 | 1016.9 |
| 20260831124301 | 70 | 189 | 1.0 | 4.0 | 0.00 | 0.12 | 0.03 | 98 | 1017.0 |
| 20260831123746 | 69 | 189 | 3.0 | 4.0 | 0.00 | 0.12 | 0.03 | 98 | 1017.0 |
| 20260831123244 | 69 | 189 | 3.0 | 4.0 | 0.00 | 0.12 | 0.03 | 98 | 1016.8 |
| 20260831122741 | 69 | 189 | 3.0 | 4.0 | 0.00 | 0.12 | 0.03 | 98 | 1016.8 |
| 20260831122505 | 69 | 189 | 3.0 | 5.0 | 0.00 | 0.12 | 0.03 | 99 | 1016.9 |
| 20260831121732 | 69 | 189 | 2.0 | 5.0 | 0.00 | 0.12 | 0.03 | 98 | 1016.8 |
| 20260831121234 | 69 | 189 | 0.0 | 3.0 | 0.00 | 0.12 | 0.03 | 98 | 1016.8 |
| 20260831120726 | 69 | 189 | 1.0 | 3.0 | 0.00 | 0.12 | 0.03 | 98 | 1016.8 |
| 20260831120217 | 69 | 189 | 2.0 | 4.0 | 0.00 | 0.12 | 0.03 | 98 | 1016.8 |
| 20260831115712 | 69 | 189 | 3.0 | 4.0 | 0.00 | 0.12 | 0.03 | 98 | 1016.8 |
| 20260831115208 | 69 | 189 | 3.0 | 4.0 | 0.00 | 0.12 | 0.03 | 98 | 1016.8 |
| 20260831114704 | 69 | 189 | 3.0 | 4.0 | 0.00 | 0.12 | 0.03 | 98 | 1016.8 |
| 20260831114157 | 69 | 189 | 3.0 | 4.0 | 0.00 | 0.12 | 0.03 | 98 | 1016.8 |
| 20260831113649 | 69 | 189 | 3.0 | 4.0 | 0.00 | 0.12 | 0.03 | 98 | 1016.8 |
| 20260831113143 | 69 | 189 | 3.0 | 4.0 | 0.00 | 0.12 | 0.03 | 98 | 1016.6 |
| 20260831112641 | 69 | 189 | 3.0 | 5.0 | 0.00 | 0.12 | 0.03 | 98 | 1016.6 |
| 20260831112145 | 69 | 189 | 3.0 | 5.0 | 0.00 | 0.12 | 0.03 | 98 | 1016.5 |
| 20260831111852 | 69 | 189 | 3.0 | 6.0 | 0.00 | 0.12 | 0.03 | 98 | 1016.7 |
| 20260831111132 | 69 | 189 | 3.0 | 6.0 | 0.00 | 0.12 | 0.03 | 98 | 1016.5 |
| 20260831110620 | 69 | 189 | 3.0 | 5.0 | 0.00 | 0.12 | 0.03 | 98 | 1016.6 |
| 20260831110124 | 69 | 189 | 3.0 | 5.0 | 0.00 | 0.12 | 0.03 | 98 | 1016.4 |
| 20260831105841 | 69 | 189 | 3.0 | 4.0 | 0.00 | 0.12 | 0.03 | 98 | 1016.5 |
| 20260831105108 | 69 | 189 | 3.0 | 5.0 | 0.00 | 0.12 | 0.03 | 98 | 1016.5 |
| 20260831104607 | 69 | 189 | 1.0 | 5.0 | 0.00 | 0.12 | 0.03 | 98 | 1016.4 |
| 20260831104101 | 69 | 189 | 1.0 | 4.0 | 0.00 | 0.12 | 0.03 | 98 | 1016.3 |
| 20260831103559 | 69 | 189 | 1.0 | 5.0 | 0.00 | 0.12 | 0.03 | 98 | 1016.2 |
| 20260831103054 | 69 | 189 | 2.0 | 5.0 | 0.00 | 0.12 | 0.03 | 98 | 1016.1 |
| 20260831102540 | 69 | 189 | 3.0 | 6.0 | 0.00 | 0.12 | 0.03 | 98 | 1016.1 |
| 20260831102032 | 69 | 189 | 3.0 | 6.0 | 0.00 | 0.12 | 0.03 | 98 | 1016.1 |
| 20260831101514 | 69 | 191 | 3.0 | 6.0 | 0.00 | 0.12 | 0.03 | 98 | 1016.1 |
| 20260831101010 | 69 | 191 | 2.0 | 4.0 | 0.00 | 0.12 | 0.03 | 98 | 1016.1 |
| 20260831100507 | 69 | 191 | 1.0 | 4.0 | 0.01 | 0.12 | 0.03 | 98 | 1016.1 |
| 20260831100220 | 69 | 191 | 2.0 | 4.0 | 0.01 | 0.12 | 0.03 | 98 | 1016.2 |
| 20260831095444 | 69 | 191 | 3.0 | 4.0 | 0.01 | 0.12 | 0.03 | 98 | 1016.1 |
| 20260831094944 | 69 | 191 | 3.0 | 4.0 | 0.02 | 0.12 | 0.03 | 98 | 1016.2 |
| 20260831094856 | 69 | 191 | 2.0 | 5.0 | 0.02 | 0.12 | 0.03 | 98 | 1016.3 |
| 20260831093913 | 69 | 191 | 1.0 | 5.0 | 0.02 | 0.12 | 0.03 | 98 | 1016.3 |
| 20260831093359 | 69 | 191 | 0.0 | 4.0 | 0.02 | 0.12 | 0.03 | 98 | 1016.4 |
| 20260831092847 | 69 | 191 | 0.0 | 0.0 | 0.02 | 0.12 | 0.03 | 98 | 1016.3 |
| 20260831092806 | 68 | 191 | 0.0 | 0.0 | 0.02 | 0.12 | 0.03 | 98 | 1016.2 |